Flag for U.S.A. Weather past 2 weeks in Springfield, Massachusetts, U.S.A.

Now
61 °F

Clear.


Feels Like: 61 °F
Forecast: 60 / 84 °F
Wind: No wind

Location: Barnes Municipal Airport

Current Time: Jul 26, 2014 at 1:19:51 AM

Latest Report: Jul 26, 2014 at 12:53 AM


Visibility: 8 mi

Pressure: 29.98 "Hg

Humidity: 90%

Dew point: 58 °F

Location of SpringfieldLocation

Historic Weather in Springfield — Graph

°F

Springfield temperature yesterday

Maximum temperature yesterday: 81 °F (at 2:53 PM)
Minimum temperature yesterday: 55 °F (at 4:53 AM)
Average temperature yesterday: 68 °F

Past Weeks' High & Low Weather Summary

 TemperatureHumidityPressure
High92 °F (Jul 23, 2:53 PM)94% (Jul 14, 6:53 AM)30.27 "Hg (Jul 14, 6:53 AM)
Low55 °F (Jul 25, 4:53 AM)29% (Jul 18, 3:53 PM)29.73 "Hg (Jul 23, 6:53 PM)
Average71 °F72%30.02 "Hg
* Reported Jul 10 11:53 PM — Jul 25 11:53 PM, Springfield, Weather by CustomWeather, © 2014

Note: Actual official high and low records may vary slightly from our data, if they occured in-between our weather recording intervals... More about our weather records

Advertising

Springfield weather history for previous 24 hours

 ConditionsComfort  
Time TempWeatherWind HumidityBarometerVisibility
11:53 PM
Jul 25
62 °FClear.No wind93%29.99 "Hg7 mi
10:53 PM63 °FClear.No wind90%29.99 "Hg10 mi
9:53 PM64 °FClear.3 mph90%29.99 "Hg10 mi
8:53 PM66 °FSunny.No wind87%29.97 "Hg10 mi
7:53 PM75 °FSunny.5 mph60%29.95 "Hg10 mi
6:53 PM79 °FSunny.6 mph45%29.95 "Hg10 mi
5:53 PM81 °FSunny.6 mph41%29.94 "Hg10 mi
4:53 PM81 °FSunny.5 mph39%29.95 "Hg10 mi
3:53 PM81 °FSunny.9 mph39%29.96 "Hg10 mi
2:53 PM81 °FScattered clouds.6 mph38%29.96 "Hg10 mi
1:53 PM80 °FPassing clouds.8 mph41%29.96 "Hg10 mi
12:53 PM79 °FScattered clouds.No wind45%29.97 "Hg10 mi
11:53 AM76 °FScattered clouds.3 mph50%29.99 "Hg10 mi
10:53 AM74 °FSunny.3 mph53%30.00 "Hg10 mi
9:53 AM69 °FSunny.No wind63%30.01 "Hg10 mi
8:53 AM65 °FSunny.No wind70%30.01 "Hg10 mi
7:53 AM63 °FSunny.5 mph73%29.99 "Hg10 mi
6:53 AM57 °FSunny.No wind90%29.98 "Hg10 mi
5:53 AM55 °FClear.No wind90%29.98 "Hg10 mi
4:53 AM55 °FClear.No wind93%29.97 "Hg10 mi
3:53 AM57 °FClear.3 mph90%29.96 "Hg10 mi
2:53 AM59 °FClear.3 mph87%29.95 "Hg10 mi
1:53 AM59 °FClear.5 mph87%29.94 "Hg10 mi
Weather by CustomWeather, © 2014

See weather overviewHow to use our weather pages